Flag for Moldova Weather past 2 weeks in Tiraspol, Moldova

Now
57 °F

Passing clouds.


Feels Like: 57 °F
Forecast: 45 / 58 °F
Wind: 3 mph from Southeast

Location: Chisinau International Airport

Current Time: Oct 2, 2014 at 8:14:05 PM

Latest Report: Oct 2, 2014 at 7:30 PM


Visibility: N/A

Pressure: 30.42 "Hg

Humidity: 36%

Dew point: 30 °F

Location of TiraspolLocation

Historic Weather in Tiraspol — Graph

°F

Tiraspol temperature yesterday

Maximum temperature yesterday: 68 °F (at 1:30 PM)
Minimum temperature yesterday: 50 °F (at 1:30 AM)
Average temperature yesterday: 59 °F

Past Weeks' High & Low Weather Summary

 TemperatureHumidityPressure
High79 °F (Sep 22, 5:00 PM)93% (Sep 30, 7:30 AM)30.45 "Hg (Sep 30, 7:30 AM)
Low32 °F (Sep 25, 6:00 AM)13% (Sep 19, 5:00 PM)29.56 "Hg (Sep 22, 11:00 PM)
Average57 °F57%30.08 "Hg
* Reported Sep 17 7:00 PM — Oct 2 7:00 PM, Tiraspol, Weather by CustomWeather, © 2014

Note: Actual official high and low records may vary slightly from our data, if they occured in-between our weather recording intervals... More about our weather records

Advertising

Tiraspol weather history for previous 24 hours

 ConditionsComfort  
Time TempWeatherWind HumidityBarometerVisibility
7:00 PM
Oct 2
57 °FPassing clouds.3 mph39%30.42 "HgN/A
6:30 PM57 °FPassing clouds.3 mph36%30.42 "HgN/A
6:00 PM59 °FSunny.6 mph34%30.42 "Hg10 mi
5:30 PM59 °FSunny.7 mph34%30.42 "Hg10 mi
5:00 PM59 °FSunny.8 mph34%30.42 "Hg10 mi
4:30 PM59 °FSunny.7 mph34%30.42 "Hg10 mi
4:00 PM61 °FPassing clouds.6 mph31%30.42 "HgN/A
3:30 PM59 °FSunny.7 mph31%30.45 "Hg10 mi
3:00 PM61 °FPassing clouds.8 mph31%30.45 "HgN/A
2:30 PM61 °FSunny.10 mph31%30.45 "Hg10 mi
2:00 PM61 °FPassing clouds.9 mph34%30.45 "HgN/A
1:30 PM59 °FSunny.12 mph36%30.45 "Hg10 mi
1:00 PM59 °FPassing clouds.9 mph36%30.45 "HgN/A
12:30 PM59 °FSunny.12 mph36%30.45 "Hg10 mi
12:00 PM59 °FPassing clouds.10 mph39%30.45 "HgN/A
11:30 AM59 °FSunny.12 mph36%30.45 "Hg10 mi
11:00 AM55 °FPassing clouds.9 mph41%30.45 "HgN/A
10:30 AM55 °FSunny.8 mph41%30.45 "Hg10 mi
10:00 AM54 °FSunny.9 mph47%30.45 "Hg10 mi
9:30 AM50 °FSunny.8 mph58%30.42 "Hg10 mi
9:00 AM48 °FSunny.8 mph62%30.42 "Hg10 mi
8:30 AM45 °FSunny.6 mph71%30.42 "Hg10 mi
8:00 AM45 °FClear.8 mph66%30.42 "Hg10 mi
7:30 AM45 °FClear.6 mph61%30.42 "Hg10 mi
7:00 AM46 °FClear.3 mph57%30.39 "Hg10 mi
6:30 AM46 °FClear.2 mph57%30.39 "Hg10 mi
6:00 AM48 °FClear.5 mph54%30.39 "Hg10 mi
5:30 AM46 °FClear.2 mph62%30.39 "Hg10 mi
5:00 AM48 °FClear.3 mph58%30.39 "Hg10 mi
4:30 AM48 °FClear.5 mph58%30.39 "Hg10 mi
4:00 AM50 °FClear.3 mph54%30.39 "Hg10 mi
3:30 AM50 °FClear.5 mph54%30.39 "Hg10 mi
3:00 AM52 °FClear.6 mph50%30.39 "Hg10 mi
2:30 AM52 °FClear.7 mph50%30.39 "Hg10 mi
2:00 AM52 °FClear.8 mph50%30.39 "Hg10 mi
1:30 AM52 °FClear.6 mph50%30.39 "Hg10 mi
1:00 AM54 °FClear.1 mph47%30.36 "Hg10 mi
12:30 AM50 °FClear.No wind58%30.36 "Hg10 mi
12:00 AM52 °FClear.7 mph54%30.36 "Hg10 mi
11:30 PM
Oct 1
55 °FClear.8 mph47%30.36 "Hg10 mi
11:00 PM55 °FClear.9 mph51%30.33 "Hg10 mi
10:30 PM57 °FClear.9 mph55%30.33 "Hg10 mi
10:00 PM57 °FPassing clouds.6 mph55%30.33 "HgN/A
9:30 PM59 °FClear.7 mph59%30.33 "Hg10 mi
9:00 PM61 °FClear.6 mph55%30.30 "Hg10 mi
8:30 PM61 °FClear.6 mph52%30.30 "Hg10 mi
8:00 PM63 °FPassing clouds.6 mph52%30.30 "HgN/A
Weather by CustomWeather, © 2014

See weather overviewHow to use our weather pages